Regional Weather Roundup
Issued by NWS Columbia, SC

Current Version | Previous Version | Text Only | Print | Product List | Glossary On
Versions: 1 2 3 4 5 6 7 8 9 10 11 12 13 14 15 16 17 18 19 20 21 22 23 24 25 26 27 28 29 30 31 32 33 34 35 36 37 38 39 40 41 42 43 44 45 46 47 48 49 50
000 ASUS42 KCAE 190110 RWRCAE REGIONAL WEATHER ROUNDUP NATIONAL WEATHER SERVICE COLUMBIA SC 900 PM EDT SUN APR 18 2021 NOTE: "FAIR" INDICATES FEW OR NO CLOUDS BELOW 12,000 FEET WITH NO SIGNIFICANT WEATHER AND/OR OBSTRUCTIONS TO VISIBILITY. NOT ALL STATIONS ARE QUALITY CONTROLLED BY THE NATIONAL WEATHER SERVICE. USE DATA WITH CAUTION...ESPECIALLY DEWPOINT OBSERVATIONS. SCZ001>059-115-116-135>137-GAZ040-063>065-077-190200- ...UPSTATE SOUTH CAROLINA... CITY SKY/WX TMP DP RH WIND PRES REMARKS ANDERSON CLEAR 63 43 48 S5 29.83R LIBERTY CLEAR 61 43 51 SE5 29.83R SPARTANBURG CLEAR 61 41 48 CALM 29.83R CLEMSON CLEAR 64 39 39 S3 29.83R GREENVILLE CLEAR 67 39 35 S3 29.84R GREENWOOD CLEAR 59 46 62 CALM 29.85R GREER CLEAR 61 40 45 SE3 29.84R ROCK HILL CLEAR 55 46 71 CALM 29.85R CHESTER CLEAR 57 45 62 CALM 29.85R LAURENS CLEAR 61 45 55 CALM 29.84R ...CENTRAL SOUTH CAROLINA... CITY SKY/WX TMP DP RH WIND PRES REMARKS COLUMBIA APT PTCLDY 68 45 43 CALM 29.82R COLUMBIA OWENS CLEAR 66 47 50 CALM 29.84R MCENTIRE ANGB CLEAR 61 50 67 CALM 29.82R HAZE ORANGEBURG PTCLDY 65 47 52 CALM 29.83R SUMTER SHAW MOCLDY 65 46 50 CALM 29.82R NEWBERRY CLEAR 61 46 59 CALM 29.86R AIKEN FAIR 64 46 52 CALM 29.84S BARNWELL MOCLDY 64 48 55 CALM 29.83R MANNING FAIR 63 52 67 CALM 29.83R CAMDEN FAIR 63 46 55 CALM 29.85R LANCASTER N/A 59 48 67 CALM 29.84R WINNSBORO CLEAR 63 45 51 CALM 29.84R ...EASTERN AND COASTAL SOUTH CAROLINA... CITY SKY/WX TMP DP RH WIND PRES REMARKS MYRTLE BEACH MOCLDY 65 64 97 S6 29.84R N MYRTLE BCH PTCLDY 66 63 90 S6 29.84R CONWAY FAIR 63 55 77 CALM 29.84R MARION FAIR 61 50 67 CALM 29.84R HARTSVILLE MOCLDY 64 43 45 CALM 29.84R FLORENCE PTCLDY 69 44 40 NE5 29.83R DARLINGTON CLEAR 62 49 62 N3 29.85R CHARLESTON APT MOCLDY 67 60 78 S9 29.83R MOUNT PLEASANT N/A 68 63 83 CALM 29.84R WALTERBORO PTCLDY 64 52 63 CALM 29.84R BEAUFORT MOCLDY 70 64 81 S5 29.84R HILTON HEAD MOCLDY 70 64 83 SW12G17 29.85R ...EASTERN GEORGIA... CITY SKY/WX TMP DP RH WIND PRES REMARKS AUGUSTA BUSH F PTCLDY 63 49 60 CALM 29.82R AUGUSTA DANIEL CLEAR 72 43 35 NW5 29.84R THOMSON CLEAR 62 49 62 CALM 29.84R WASHINGTON FAIR 61 46 59 CALM 29.84R CLAXTON FAIR 72 59 64 SW6 29.85R SYLVANIA CLOUDY 68 54 61 CALM 29.84R STATESBORO MOCLDY 67 52 59 CALM 29.84R SAVANNAH MOCLDY 71 59 65 SW7 29.85R ...SOUTHERN NORTH CAROLINA... CITY SKY/WX TMP DP RH WIND PRES REMARKS CHARLOTTE PTCLDY 61 42 49 SE6 29.84R MONROE CLEAR 58 45 62 E3 29.84R WADESBORO CLEAR 58 46 64 CALM 29.85R ROCKINGHAM CLEAR 64 43 46 CALM 29.85R RUTHERFORDTON CLOUDY 61 41 48 CALM 29.85R ASHEVILLE PTCLDY 58 36 43 N13 29.87R $$

USA.gov is the U.S. government's official web portal to all federal, state and local government web resources and services.